TimeEDT,TemperatureF,Dew PointF,Humidity,Sea Level PressureIn,VisibilityMPH,Wind Direction,Wind SpeedMPH,Gust SpeedMPH,PrecipitationIn,Events,Conditions,WindDirDegrees,DateUTC
12:53 AM,39.9,18.0,41,29.94,10.0,North,10.4,-,N/A,,Clear,360,2012-04-23 04:53:00
1:53 AM,37.0,19.9,50,29.93,10.0,North,11.5,-,N/A,,Clear,360,2012-04-23 05:53:00
2:53 AM,37.0,19.9,50,29.91,10.0,North,10.4,-,N/A,,Clear,350,2012-04-23 06:53:00
3:53 AM,36.0,19.9,52,29.91,10.0,North,11.5,-,N/A,,Clear,350,2012-04-23 07:53:00
4:53 AM,37.0,19.9,50,29.89,10.0,NNW,12.7,-,N/A,,Clear,340,2012-04-23 08:53:00
5:53 AM,35.1,19.9,54,29.89,10.0,NNW,12.7,-,N/A,,Clear,330,2012-04-23 09:53:00
6:53 AM,34.0,19.9,56,29.89,10.0,NW,10.4,-,N/A,,Clear,320,2012-04-23 10:53:00
7:53 AM,37.0,21.0,52,29.89,10.0,NNW,13.8,-,N/A,,Clear,330,2012-04-23 11:53:00
8:53 AM,42.1,21.9,45,29.89,10.0,NNW,15.0,-,N/A,,Clear,330,2012-04-23 12:53:00
9:53 AM,46.9,21.0,36,29.88,10.0,NNW,17.3,-,N/A,,Clear,340,2012-04-23 13:53:00
10:53 AM,51.1,18.0,27,29.87,10.0,NNW,20.7,28.8,N/A,,Clear,340,2012-04-23 14:53:00
11:53 AM,53.1,14.0,21,29.86,10.0,NNW,28.8,34.5,N/A,,Clear,340,2012-04-23 15:53:00
12:53 PM,55.9,12.9,18,29.84,10.0,North,27.6,35.7,N/A,,Clear,350,2012-04-23 16:53:00
1:53 PM,57.9,12.9,17,29.82,10.0,North,24.2,33.4,N/A,,Clear,350,2012-04-23 17:53:00
2:53 PM,57.9,12.9,17,29.79,10.0,NNW,21.9,38.0,N/A,,Clear,330,2012-04-23 18:53:00
3:53 PM,59.0,15.1,18,29.78,10.0,North,21.9,35.7,N/A,,Clear,350,2012-04-23 19:53:00
4:53 PM,57.0,12.0,17,29.77,10.0,NW,26.5,34.5,N/A,,Clear,320,2012-04-23 20:53:00
5:53 PM,55.0,10.0,17,29.78,10.0,NNW,26.5,38.0,N/A,,Clear,340,2012-04-23 21:53:00
6:53 PM,53.1,8.1,16,29.79,10.0,NNW,26.5,36.8,N/A,,Clear,330,2012-04-23 22:53:00
7:53 PM,50.0,10.0,20,29.78,10.0,NNW,17.3,33.4,N/A,,Clear,330,2012-04-23 23:53:00
8:53 PM,46.0,7.0,20,29.79,10.0,NNW,17.3,26.5,N/A,,Clear,330,2012-04-24 00:53:00
9:53 PM,45.0,9.0,23,29.78,10.0,NW,13.8,-,N/A,,Clear,310,2012-04-24 01:53:00
10:53 PM,42.1,10.9,28,29.78,10.0,WNW,10.4,-,N/A,,Clear,300,2012-04-24 02:53:00
11:53 PM,41.0,12.9,32,29.77,10.0,WNW,9.2,-,N/A,,Clear,300,2012-04-24 03:53:00